Stations météo

réclame
Mon MeteoGroup
Blois, France (7245): Température de l'air & dewpoint: 15.10.2018 16:00:00 - 21.10.2018 16:00:00 (CEST)Blois, France (7245): Température de l'air 5cm: 15.10.2018 16:00:00 - 21.10.2018 16:00:00 (CEST)Blois, France (7245): Température de l'air -20cm & Température de l'air -100cm: 15.10.2018 16:00:00 - 21.10.2018 16:00:00 (CEST)Blois, France (7245): Vitesse du vent & gusts: 15.10.2018 16:00:00 - 21.10.2018 16:00:00 (CEST)Blois, France (7245): Direction du vent: 15.10.2018 16:00:00 - 21.10.2018 16:00:00 (CEST)Blois, France (7245): reduced air pressure: 15.10.2018 16:00:00 - 21.10.2018 16:00:00 (CEST)Blois, France (7245): visibility: 15.10.2018 16:00:00 - 21.10.2018 16:00:00 (CEST)Blois, France (7245): Ensoleillement: 15.10.2018 16:00:00 - 21.10.2018 16:00:00 (CEST)Blois, France (7245): Quantités de précipitations: 15.10.2018 16:00:00 - 21.10.2018 16:00:00 (CEST)
Date & Time tt [°C] td [°C] tt 5cm [°C] tt -20cm [°C] tt -100cm [°C] ff [km/h] ff [knt] fx [km/h] fx [knt] dd ppp [hPa] vv [km] sd [min] rr [mm]
21.10.2018 16:00:00 19,6 6,7 23,6 14,2 16,8 12 7 22 12 NNE 1025,0 19 60 0,0
21.10.2018 15:00:00 18,9 7,3 23,2 14,0 16,8 11 6 22 12 NE 1025,4 16 60 0,0
21.10.2018 14:00:00 17,8 8,4 21,2 13,9 16,9 10 6 21 11 NE 1026,0 13 60 0,0
21.10.2018 13:00:00 16,4 8,1 18,9 13,8 16,8 9 5 19 10 NE 1026,7 11 60 0,0
21.10.2018 12:00:00 13,6 7,6 15,6 13,8 16,8 11 6 19 11 ENE 1027,5 9 60 0,0
21.10.2018 11:00:00 10,5 7,2 11,9 13,9 16,8 10 6 17 9 ENE 1027,9 6 60 0,0
21.10.2018 10:00:00 7,9 6,0 6,1 14,1 16,9 9 5 16 9 NNE 1028,0 4,1 54 0,0
21.10.2018 09:00:00 5,9 4,9 4,3 14,2 16,8 5 3 13 7 NNE 1028,1 2,5 14 0,0
21.10.2018 08:00:00 5,6 4,6 4,4 14,3 16,8 10 5 13 7 NNE 1027,6 2,1 0 0,0
21.10.2018 07:00:00 6,9 5,4 5,6 14,5 16,9 6 4 16 9 NE 1027,6 3,5 0 0,0
21.10.2018 06:00:00 6,9 5,5 5,4 14,6 16,9 9 5 16 9 NNE 1027,8 3,3 0 0,0
21.10.2018 05:00:00 7,4 5,4 5,7 14,7 16,9 7 4 20 11 NNE 1028,0 4,1 0 0,0
21.10.2018 04:00:00 8,0 5,5 6,8 14,9 16,9 13 7 23 12 NNE 1028,5 6 0 0,0
21.10.2018 03:00:00 7,9 5,7 7,0 15,0 16,9 16 9 23 12 NNE 1028,7 6 0 0,0
21.10.2018 02:00:00 8,1 5,6 7,1 15,2 16,9 16 9 25 14 NNE 1029,2 8 0 0,0
21.10.2018 01:00:00 8,3 5,4 7,1 15,3 16,9 14 7 20 11 NNE 1029,3 10 0 0,0
21.10.2018 00:00:00 9,8 5,6 8,3 15,4 16,9 11 6 21 12 NNE 1029,3 16 0 0,0
20.10.2018 23:00:00 11,2 5,9 9,2 15,5 16,9 13 7 23 13 NNE 1029,4 20 0 0,0
20.10.2018 22:00:00 11,9 5,7 10,2 15,6 16,9 10 6 23 12 NNE 1029,1 20 0 0,0
20.10.2018 21:00:00 13,5 6,4 11,8 15,6 16,9 12 7 21 12 NE 1028,6 20 0 0,0
20.10.2018 20:00:00 14,7 7,0 12,9 15,6 16,9 13 7 26 14 NNE 1028,8 20 0 0,0
20.10.2018 19:00:00 16,5 7,4 14,8 15,5 16,9 13 7 26 14 NNE 1028,3 20 34 0,0
20.10.2018 18:00:00 18,6 8,0 19,5 15,3 16,9 13 7 28 15 NNE 1027,7 20 55 0,0
20.10.2018 17:00:00 19,0 8,6 20,5 15,2 16,9 18 10 32 17 NNE 1027,9 19 58 0,0
20.10.2018 16:00:00 19,6 9,8 22,8 14,9 16,9 14 7 26 14 NE 1028,1 19 60 0,0
20.10.2018 15:00:00 19,0 10,3 22,7 14,8 16,9 14 8 28 15 NE 1028,4 15 60 0,0
20.10.2018 14:00:00 17,9 10,3 20,2 14,6 16,9 16 8 27 15 NE 1028,9 13 60 0,0
20.10.2018 13:00:00 16,3 9,9 19,1 14,6 16,9 16 9 29 16 NNE 1029,8 10 60 0,0
20.10.2018 12:00:00 14,2 9,4 15,9 14,6 16,9 13 7 27 15 NE 1029,8 8 60 0,0
20.10.2018 11:00:00 11,6 8,4 12,4 14,7 16,9 14 8 27 15 NE 1029,5 6 60 0,0
20.10.2018 10:00:00 9,5 7,6 8,5 14,8 16,9 12 6 21 12 NNE 1029,0 4,9 54 0,0
20.10.2018 09:00:00 8,2 6,8 7,4 15,0 16,9 13 7 26 14 NNE 1028,4 4,0 14 0,0
20.10.2018 08:00:00 8,3 6,9 7,5 15,1 16,9 13 7 23 13 NNE 1028,1 4,7 0 0,0
20.10.2018 07:00:00 8,6 6,9 7,7 15,2 16,9 14 7 27 14 NNE 1027,7 6 0 0,0
20.10.2018 06:00:00 8,9 7,0 8,1 15,3 16,9 16 9 25 14 NNE 1027,4 7 0 0,0
20.10.2018 05:00:00 9,6 7,7 8,7 15,4 16,9 16 8 24 13 NNE 1026,4 7 0 0,0
20.10.2018 04:00:00 10,1 8,0 9,1 15,6 16,9 13 7 29 15 NNE 1026,6 6 0 0,0
20.10.2018 03:00:00 10,6 8,9 9,7 15,6 16,9 18 10 29 15 NNE 1026,3 4,2 0 0,0
20.10.2018 02:00:00 10,8 9,1 9,0 15,8 16,9 16 9 26 14 NNE 1026,2 4,2 0 0,0
20.10.2018 01:00:00 10,7 8,8 9,3 15,9 16,9 9 5 16 9 NNE 1025,8 4,1 0 0,0
20.10.2018 00:00:00 12,4 9,8 11,1 16,0 16,9 11 6 21 11 NNE 1025,4 7 0 0,0
19.10.2018 23:00:00 13,2 9,8 11,8 16,1 17,0 11 6 25 14 NNE 1025,3 8 0 0,0
19.10.2018 22:00:00 13,4 10,4 12,1 16,1 17,0 14 7 21 12 NNE 1025,1 8 0 0,0
19.10.2018 21:00:00 13,9 10,7 12,5 16,1 16,9 9 5 22 12 NNE 1024,5 9 0 0,0
19.10.2018 20:00:00 14,5 10,7 13,1 16,1 17,0 10 5 23 12 N 1023,8 10 0 0,0
19.10.2018 19:00:00 15,6 11,0 14,4 16,0 17,0 11 6 26 14 N 1022,7 9 32 0,0
19.10.2018 18:00:00 17,5 11,1 18,5 15,9 17,0 13 7 29 16 N 1022,0 10 60 0,0
19.10.2018 17:00:00 18,5 11,3 21,3 15,7 16,9 16 9 31 17 NNE 1021,8 10 60 0,0
19.10.2018 16:00:00 19,0 11,6 22,3 15,5 17,0 12 6 26 14 NNE 1021,8 11 60 0,0
19.10.2018 15:00:00 17,4 11,4 21,8 15,4 17,0 18 10 28 15 NNE 1022,3 8 60 0,0
19.10.2018 14:00:00 16,5 11,4 19,9 15,3 17,0 16 8 29 15 NNE 1022,3 7 60 0,0
19.10.2018 13:00:00 15,6 11,4 17,8 15,2 17,0 16 8 26 14 N 1022,8 6 53 0,0
19.10.2018 12:00:00 13,6 10,8 15,0 15,3 17,0 13 7 25 13 NE 1022,7 4,5 31 0,0
19.10.2018 11:00:00 12,4 10,3 11,8 15,3 17,0 16 9 29 15 NNE 1022,8 3,7 23 0,0
19.10.2018 10:00:00 10,8 9,9 9,9 15,4 17,0 19 11 31 17 NNE 1022,4 2,3 0 0,0
19.10.2018 09:00:00 9,9 9,1 8,8 15,5 17,0 16 8 29 15 NNE 1022,0 2,4 0 0,0
19.10.2018 08:00:00 9,6 8,5 8,8 15,7 17,0 15 8 25 14 NNE 1021,4 3,9 0 0,0
19.10.2018 07:00:00 9,8 8,6 9,1 15,8 17,0 16 9 27 15 NNE 1021,1 4,7 0 0,0
19.10.2018 06:00:00 10,3 8,9 9,6 15,9 17,0 16 9 26 14 NNE 1021,0 6 0 0,0
19.10.2018 05:00:00 10,5 8,9 9,7 16,0 17,0 14 8 24 13 NNE 1021,1 8 0 0,0
19.10.2018 04:00:00 10,8 8,7 9,9 16,1 17,0 15 8 27 14 NNE 1020,8 13 0 0,0
19.10.2018 03:00:00 11,4 9,0 10,5 16,3 17,0 14 8 23 13 NNE 1020,8 17 0 0,0
19.10.2018 02:00:00 12,0 9,4 11,0 16,4 17,0 13 7 27 14 NNE 1020,9 17 0 0,0
19.10.2018 01:00:00 12,5 9,5 11,4 16,5 17,0 12 6 23 12 NNE 1021,2 17 0 0,0
19.10.2018 00:00:00 12,9 9,7 11,9 16,6 17,0 13 7 26 14 NNE 1021,2 17 0 0,0
18.10.2018 23:00:00 13,5 10,1 12,5 16,6 17,0 16 8 27 15 NNE 1021,2 15 0 0,0
18.10.2018 22:00:00 14,7 10,5 13,6 16,7 17,0 16 8 30 16 NE 1020,7 14 0 0,0
18.10.2018 21:00:00 15,5 10,9 14,5 16,7 17,0 17 9 38 21 NNE 1020,4 16 0 0,0
18.10.2018 20:00:00 16,8 11,1 15,8 16,6 17,0 20 11 44 24 NNE 1019,8 17 0 0,0
18.10.2018 19:00:00 18,7 11,5 17,7 16,5 17,0 22 12 43 23 NNE 1018,9 20 30 0,0
18.10.2018 18:00:00 21,5 10,9 22,1 16,4 17,0 19 10 37 20 NE 1018,0 20 60 0,0
18.10.2018 17:00:00 22,5 10,9 25,1 16,2 17,0 16 9 33 18 NE 1018,4 20 60 0,0
18.10.2018 16:00:00 22,3 10,8 25,7 16,0 17,0 19 10 34 19 NE 1018,6 20 60 0,0
18.10.2018 15:00:00 21,7 10,8 24,7 15,8 17,0 15 8 29 16 NE 1018,8 20 60 0,0
18.10.2018 14:00:00 20,5 11,1 21,8 15,7 17,0 16 8 31 17 NE 1019,6 19 60 0,0
18.10.2018 13:00:00 18,6 11,4 21,1 15,6 17,0 18 10 32 17 NE 1020,1 13 60 0,0
18.10.2018 12:00:00 16,9 11,8 17,9 15,6 17,0 16 9 41 22 NNE 1020,6 9 60 0,0
18.10.2018 11:00:00 14,7 11,3 15,3 15,7 17,0 20 11 38 21 NE 1020,6 8 60 0,0
18.10.2018 10:00:00 13,0 10,7 12,0 15,8 17,0 16 9 31 17 NE 1020,3 6 44 0,0
18.10.2018 09:00:00 12,0 10,2 11,1 15,9 17,0 17 9 35 19 NNE 1020,1 4,6 0 0,0
18.10.2018 08:00:00 11,8 10,4 11,1 16,0 17,0 22 12 36 19 NNE 1019,6 3,8 0 0,0
18.10.2018 07:00:00 12,2 10,6 11,4 16,1 17,0 22 12 38 20 NNE 1019,2 4,8 0 0,0
18.10.2018 06:00:00 12,2 10,4 11,4 16,2 17,0 20 11 30 16 NNE 1019,1 8 0 0,0
18.10.2018 05:00:00 12,4 10,5 11,6 16,4 17,0 16 8 27 15 NNE 1019,1 10 0 0,0
18.10.2018 04:00:00 12,6 10,5 11,6 16,5 17,0 17 9 26 14 NNE 1019,1 12 0 0,0
18.10.2018 03:00:00 12,8 10,3 11,7 16,5 17,0 13 7 23 13 NNE 1019,1 20 0 0,0
18.10.2018 02:00:00 13,4 10,4 12,4 16,7 17,0 15 8 22 12 NNE 1019,1 20 0 0,0
18.10.2018 01:00:00 14,4 10,6 13,1 16,8 17,0 14 7 24 13 NNE 1019,0 20 0 0,0
18.10.2018 00:00:00 14,7 10,7 13,5 16,8 17,0 13 7 25 14 NNE 1019,0 20 0 0,0
17.10.2018 23:00:00 15,6 11,2 14,5 16,9 17,0 16 9 28 15 NNE 1018,8 20 0 0,0
17.10.2018 22:00:00 16,5 11,4 15,4 16,9 17,0 16 9 26 14 NNE 1018,4 20 0 0,0
17.10.2018 21:00:00 17,2 11,7 15,6 16,9 17,0 15 8 21 11 NNE 1018,0 20 0 0,0
17.10.2018 20:00:00 17,7 11,7 16,2 16,8 17,0 10 6 16 9 NNE 1017,4 20 0 0,0
17.10.2018 19:00:00 19,8 11,8 18,3 16,8 17,0 10 6 19 11 NNE 1016,6 20 35 0,0
17.10.2018 18:00:00 22,0 12,0 23,0 16,5 17,0 11 6 18 10 NNE 1016,2 20 60 0,0
17.10.2018 17:00:00 22,3 12,0 25,6 16,3 17,0 11 6 19 10 NE 1016,3 20 60 0,0
17.10.2018 16:00:00 22,0 12,0 26,1 16,1 17,0 8 5 21 11 NE 1016,8 20 60 0,0
17.10.2018 15:00:00 21,7 12,3 25,7 15,9 17,1 10 5 18 10 ENE 1017,1 20 60 0,0
17.10.2018 14:00:00 20,5 11,9 22,8 15,7 17,1 10 5 19 10 E 1017,9 20 60 0,0
17.10.2018 13:00:00 19,5 12,0 19,7 15,7 17,1 13 7 19 10 E 1018,8 20 38 0,0
17.10.2018 12:00:00 17,3 11,6 19,0 15,6 17,0 9 5 16 9 ENE 1019,3 20 42 0,0
17.10.2018 11:00:00 15,8 11,6 15,4 15,6 17,1 7 4 13 7 ENE 1019,6 20 10 0,0
17.10.2018 10:00:00 13,5 11,7 12,2 15,7 17,0 0 0 5 3 N 1019,7 19 1 0,0
17.10.2018 09:00:00 11,8 10,7 10,2 15,8 17,1 0 0 5 3 N 1019,5 11 0 0,0
17.10.2018 08:00:00 10,9 9,8 10,3 15,9 17,1 2 1 7 4 NW 1019,4 8 0 0,0
17.10.2018 07:00:00 11,1 10,2 10,5 16,0 17,0 2 1 4 2 WNW 1019,3 9 0 0,0
17.10.2018 06:00:00 10,4 9,5 9,8 16,1 17,0 0 0 3 2 N 1019,3 12 0 0,0
17.10.2018 05:00:00 10,3 9,4 9,1 16,2 17,1 3 2 7 4 N 1019,1 8 0 0,2
17.10.2018 04:00:00 10,3 9,4 8,4 16,4 17,1 4 2 6 4 N 1019,3 6 0 0,0
17.10.2018 03:00:00 10,6 9,8 8,2 16,5 17,1 4 2 5 3 NNW 1019,5 9 0 0,0
17.10.2018 02:00:00 10,3 9,4 8,5 16,7 17,1 4 2 8 4 SW 1019,5 13 0 0,0
17.10.2018 01:00:00 10,7 9,3 9,0 16,8 17,1 0 0 9 5 N 1019,7 16 0 0,0
17.10.2018 00:00:00 12,4 11,1 9,2 16,9 17,1 5 3 8 5 NW 1019,8 20 0 0,0
16.10.2018 23:00:00 12,2 10,1 10,4 17,0 17,1 3 1 6 4 W 1019,9 20 0 0,0
16.10.2018 22:00:00 15,0 11,2 12,1 17,1 17,0 4 2 14 8 NW 1019,6 20 0 0,0
16.10.2018 21:00:00 14,3 10,9 12,0 17,1 17,0 8 4 10 5 W 1019,4 20 0 0,0
16.10.2018 20:00:00 16,5 11,6 13,8 17,1 17,1 4 2 8 5 W 1019,1 20 0 0,0
16.10.2018 19:00:00 18,1 11,9 17,7 17,0 17,1 7 4 17 9 W 1018,5 0,4 41 0,0
16.10.2018 18:00:00 20,9 12,3 22,3 16,8 17,0 14 8 22 12 WSW 1018,0 1,8 60 0,0
16.10.2018 17:00:00 22,1 11,8 24,6 16,5 17,0 11 6 20 11 WSW 1017,9 1,8 60 0,0
16.10.2018 16:00:00 22,5 11,2 23,8 16,3 17,1 10 5 25 14 SW 1017,7 0,3 46 0,0
16.10.2018 15:00:00 21,7 11,4 23,6 16,1 17,0 7 4 18 10 S 1017,7 0,1 39 0,0
16.10.2018 14:00:00 21,4 11,1 25,8 15,9 17,0 7 4 13 7 WNW 1017,8 14 60 0,0
16.10.2018 13:00:00 20,9 11,2 25,3 15,7 17,0 0 0 12 6 N 1018,0 20 60 0,0
16.10.2018 12:00:00 19,1 10,6 22,0 15,7 17,0 5 3 9 5 WNW 1017,7 20 60 0,0
16.10.2018 11:00:00 17,1 10,5 19,5 15,7 17,0 6 3 11 6 SE 1017,6 14 60 0,0
16.10.2018 10:00:00 14,1 10,7 12,3 15,9 17,0 3 2 8 4 N 1017,6 19 60 0,0
16.10.2018 09:00:00 10,5 8,4 7,8 16,1 17,1 0 0 8 4 N 1017,4 19 22 0,0
16.10.2018 08:00:00 10,7 8,5 7,7 16,2 17,0 5 3 9 5 E 1016,7 15 0 0,0
16.10.2018 07:00:00 10,9 8,5 8,1 16,3 17,0 4 2 10 6 ESE 1016,3 15 0 0,0
16.10.2018 06:00:00 11,5 8,9 9,0 16,5 17,1 4 2 6 4 ESE 1016,0 20 0 0,0
16.10.2018 05:00:00 11,4 9,0 8,4 16,7 17,0 4 2 7 4 ENE 1015,7 20 0 0,0
16.10.2018 04:00:00 11,8 8,5 8,6 16,8 17,0 5 3 7 4 SE 1015,4 20 0 0,0
16.10.2018 03:00:00 12,0 8,3 9,0 17,0 17,0 4 2 11 6 ESE 1015,2 20 0 0,0
16.10.2018 02:00:00 13,0 8,5 9,6 17,1 17,0 4 2 10 5 E 1014,6 20 0 0,0
16.10.2018 01:00:00 14,2 8,6 11,2 17,3 17,0 6 4 11 6 ESE 1014,3 20 0 0,0
16.10.2018 00:00:00 15,2 8,7 11,7 17,4 17,0 5 3 11 6 ESE 1014,3 20 0 0,0
15.10.2018 23:00:00 15,4 9,1 12,3 17,5 17,0 9 5 17 9 E 1013,6 20 0 0,0
15.10.2018 22:00:00 15,7 8,9 13,7 17,6 17,0 13 7 31 17 SE 1012,9 20 0 0,0
15.10.2018 21:00:00 18,5 8,7 17,0 17,7 17,0 20 11 35 19 SE 1012,2 20 0 0,0
15.10.2018 20:00:00 19,9 8,6 18,7 17,7 17,0 32 18 46 25 SE 1011,7 20 0 0,0
15.10.2018 19:00:00 20,6 8,2 19,3 17,7 17,0 29 16 50 27 SE 1011,1 20 25 0,0
15.10.2018 18:00:00 21,8 8,7 21,3 17,6 17,0 30 16 51 28 SE 1010,4 20 7 0,0
15.10.2018 17:00:00 22,7 9,1 23,0 17,5 17,0 21 12 46 25 SSE 1009,6 20 28 0,0
15.10.2018 16:00:00 23,2 9,9 23,1 17,4 17,0 30 16 56 30 SSE 1009,3 20 33 0,0

tt = Température de l'air
td = dewpoint
tt 5cm = Température de l'air 5cm
tt -20cm = Température de l'air -20cm
tt -100cm = Température de l'air -100cm
ff = Vitesse du vent
fx = gusts
dd = Direction du vent
ppp = reduced air pressure
vv = visibility
sd = Ensoleillement
rr = Quantités de précipitations

stations d'obs. à proximité